User: anonymous   Login
Location: Gombori
(14.9797°N, 2.9419°W)
Time: 21:55:53
(UTC+00:00)
Language:

Fermi - Orbit

View from above orbital plane
View from above orbital plane
View from above satellite
View from above satellite

Ground track
Ground track

The orbit data is extracted from the following two-line orbital elements,

1 33053U 08029A   21300.44321889  .00001052  00000-0  43246-4 0  9999
2 33053  25.5835 315.2376 0012241   2.6794 357.3806 15.11636715738397
Epoch (UTC): 27 October 2021 10:38:14
Eccentricity: 0.0012241
inclination: 25.5835°
perigee height: 523 km
apogee height: 539 km
right ascension of ascending node: 315.2376°
argument of perigee: 2.6794°
revolutions per day: 15.11636715
mean anomaly at epoch: 357.3806°
orbit number at epoch: 73839

The dashed part of the orbit path shows where the satellite is in the earth's shadow,  

DLR